Location: Asheville, NC
(35.6000°N, 82.5500°W)
Time: 07:19:03
(UTC-04:00)

Vanguard 1 - Pass Details

Date: 11 December 2017
Orbit: 650 x 3833 km, 34.3° (Epoch: 19 June)

Event Time Altitude Azimuth Distance (km) Brightness Sun altitude
Rises 16:57:25 0° 280° (W) 4,821 14.5 2.7°
Reaches altitude 10° 17:02:09 10° 265° (W) 3,261 14.1 1.9°
Maximum altitude 17:07:08 19° 223° (SW) 2,124 13.3 1.0°
Drops below altitude 10° 17:10:54 10° 178° (S) 2,352 12.4 0.3°
Sets 17:13:38 0° 159° (SSE) 3,084 12.7 -0.2°
